Time,TemperatureF,DewpointF,PressureIn,WindDirection,WindDirectionDegrees,WindSpeedMPH,WindSpeedGustMPH,Humidity,HourlyPrecipIn,Conditions,Clouds,dailyrainin,SoftwareType,DateUTC
2013-01-14 00:01:00,33.6,26.8,30.21,WNW,292,0.0,0.0,76,0.00,,,0.00,WUHU21623XXSP,2013-01-14 05:01:00,
2013-01-14 00:02:00,33.6,26.8,30.21,WNW,292,0.0,0.0,76,0.00,,,0.00,WUHU21623XXSP,2013-01-14 05:02:00,
2013-01-14 00:03:00,33.6,26.8,30.21,WNW,292,0.0,0.0,76,0.00,,,0.00,WUHU21623XXSP,2013-01-14 05:03:00,
2013-01-14 00:08:00,33.4,26.6,30.21,WNW,292,0.0,0.0,76,0.00,,,0.00,WUHU21623XXSP,2013-01-14 05:08:00,
2013-01-14 00:13:00,33.3,26.4,30.21,North,0,0.0,0.0,76,0.00,,,0.00,WUHU21623XXSP,2013-01-14 05:13:00,
2013-01-14 00:18:00,32.9,26.3,30.21,North,0,0.0,0.0,76,0.00,,,0.00,WUHU21623XXSP,2013-01-14 05:18:00,
2013-01-14 00:23:00,32.7,26.0,30.22,WNW,292,0.0,0.0,76,0.00,,,0.00,WUHU21623XXSP,2013-01-14 05:23:00,
2013-01-14 00:28:00,32.7,26.3,30.21,WNW,292,0.0,0.0,77,0.00,,,0.00,WUHU21623XXSP,2013-01-14 05:28:00,
2013-01-14 00:33:00,32.7,26.3,30.21,WNW,292,0.0,0.0,77,0.00,,,0.00,WUHU21623XXSP,2013-01-14 05:33:00,
2013-01-14 00:38:00,32.5,26.1,30.21,WNW,292,0.0,0.0,77,0.00,,,0.00,WUHU21623XXSP,2013-01-14 05:38:00,
2013-01-14 00:43:00,32.5,26.1,30.21,WNW,292,0.0,0.0,77,0.00,,,0.00,WUHU21623XXSP,2013-01-14 05:43:00,
2013-01-14 00:48:00,32.5,26.4,30.21,WNW,292,0.0,0.0,78,0.00,,,0.00,WUHU21623XXSP,2013-01-14 05:48:00,
2013-01-14 00:53:00,32.5,26.4,30.21,WNW,292,0.0,0.0,78,0.00,,,0.00,WUHU21623XXSP,2013-01-14 05:53:00,
2013-01-14 00:58:00,32.7,26.6,30.21,WNW,292,0.0,0.0,78,0.00,,,0.00,WUHU21623XXSP,2013-01-14 05:58:00,
2013-01-14 01:03:00,32.7,26.9,30.22,WNW,292,0.0,0.0,79,0.00,,,0.00,WUHU21623XXSP,2013-01-14 06:03:00,
2013-01-14 01:08:00,32.7,26.9,30.22,WNW,292,0.0,0.0,79,0.00,,,0.00,WUHU21623XXSP,2013-01-14 06:08:00,
2013-01-14 01:13:00,32.7,26.9,30.21,WNW,292,0.0,0.0,79,0.00,,,0.00,WUHU21623XXSP,2013-01-14 06:13:00,
2013-01-14 01:18:00,32.7,26.9,30.22,WNW,292,0.0,0.0,79,0.00,,,0.00,WUHU21623XXSP,2013-01-14 06:18:00,
2013-01-14 01:23:00,32.7,26.9,30.22,WNW,292,0.0,0.0,79,0.00,,,0.00,WUHU21623XXSP,2013-01-14 06:23:00,
2013-01-14 01:28:00,32.7,26.9,30.22,WNW,292,0.0,0.0,79,0.00,,,0.00,WUHU21623XXSP,2013-01-14 06:28:00,
2013-01-14 01:33:00,32.7,26.9,30.22,WNW,292,0.0,0.0,79,0.00,,,0.00,WUHU21623XXSP,2013-01-14 06:33:00,
2013-01-14 01:38:00,32.5,26.8,30.22,WNW,292,0.0,0.0,79,0.00,,,0.00,WUHU21623XXSP,2013-01-14 06:38:00,
2013-01-14 01:43:00,32.5,26.8,30.22,WNW,292,0.0,0.0,79,0.00,,,0.00,WUHU21623XXSP,2013-01-14 06:43:00,
2013-01-14 01:48:00,32.5,26.8,30.22,WNW,292,0.0,0.0,79,0.00,,,0.00,WUHU21623XXSP,2013-01-14 06:48:00,
2013-01-14 01:53:00,32.4,26.6,30.22,WNW,292,0.0,0.0,79,0.00,,,0.00,WUHU21623XXSP,2013-01-14 06:53:00,
2013-01-14 01:58:00,32.4,26.6,30.23,WNW,292,0.0,0.0,79,0.00,,,0.00,WUHU21623XXSP,2013-01-14 06:58:00,
2013-01-14 02:03:00,32.2,26.4,30.23,WNW,292,0.0,0.0,79,0.00,,,0.00,WUHU21623XXSP,2013-01-14 07:03:00,
2013-01-14 02:08:00,32.2,26.4,30.23,WNW,292,0.0,0.0,79,0.00,,,0.00,WUHU21623XXSP,2013-01-14 07:08:00,
2013-01-14 02:13:00,32.2,26.4,30.23,WNW,292,0.0,0.0,79,0.00,,,0.00,WUHU21623XXSP,2013-01-14 07:13:00,
2013-01-14 02:18:00,32.2,26.4,30.23,WNW,292,0.0,0.0,79,0.00,,,0.00,WUHU21623XXSP,2013-01-14 07:18:00,
2013-01-14 02:23:00,32.0,26.3,30.23,WNW,292,0.0,0.0,79,0.00,,,0.00,WUHU21623XXSP,2013-01-14 07:23:00,
2013-01-14 02:28:00,31.8,26.1,30.24,WNW,292,0.0,0.0,79,0.00,,,0.00,WUHU21623XXSP,2013-01-14 07:28:00,
2013-01-14 02:33:00,31.8,26.1,30.24,WNW,292,0.0,0.0,79,0.00,,,0.00,WUHU21623XXSP,2013-01-14 07:33:00,
2013-01-14 02:38:00,31.8,26.1,30.24,WNW,292,0.0,0.0,79,0.00,,,0.00,WUHU21623XXSP,2013-01-14 07:38:00,
2013-01-14 02:43:00,31.8,26.1,30.24,WNW,292,0.0,3.1,79,0.00,,,0.00,WUHU21623XXSP,2013-01-14 07:43:00,
2013-01-14 02:48:00,32.4,26.6,30.24,NNW,337,0.0,3.1,79,0.00,,,0.00,WUHU21623XXSP,2013-01-14 07:48:00,
2013-01-14 02:53:00,33.4,26.9,30.24,North,0,0.0,0.0,77,0.00,,,0.00,WUHU21623XXSP,2013-01-14 07:53:00,
2013-01-14 02:58:00,34.3,26.8,30.24,North,0,0.0,0.0,74,0.00,,,0.00,WUHU21623XXSP,2013-01-14 07:58:00,
2013-01-14 03:03:00,34.7,26.5,30.25,North,0,0.0,0.0,72,0.00,,,0.00,WUHU21623XXSP,2013-01-14 08:03:00,
2013-01-14 03:18:00,34.7,26.5,30.25,North,0,0.0,0.0,72,0.00,,,0.00,WUHU21623XXSP,2013-01-14 08:18:00,
2013-01-14 03:23:00,36.7,25.3,30.25,NNW,337,0.0,0.0,63,0.00,,,0.00,WUHU21623XXSP,2013-01-14 08:23:00,
2013-01-14 03:28:00,36.7,24.9,30.25,NNW,337,0.0,0.0,62,0.00,,,0.00,WUHU21623XXSP,2013-01-14 08:28:00,
2013-01-14 03:33:00,36.5,24.9,30.25,NNW,337,0.0,0.0,62,0.00,,,0.00,WUHU21623XXSP,2013-01-14 08:33:00,
2013-01-14 03:38:00,36.1,24.4,30.26,SW,225,0.0,0.0,62,0.00,,,0.00,WUHU21623XXSP,2013-01-14 08:38:00,
2013-01-14 03:43:00,35.8,24.1,30.26,SW,225,0.0,0.0,62,0.00,,,0.00,WUHU21623XXSP,2013-01-14 08:43:00,
2013-01-14 03:48:00,35.4,24.1,30.26,SW,225,0.0,0.0,63,0.00,,,0.00,WUHU21623XXSP,2013-01-14 08:48:00,
2013-01-14 03:53:00,34.9,23.9,30.27,SW,225,0.0,0.0,64,0.00,,,0.00,WUHU21623XXSP,2013-01-14 08:53:00,
2013-01-14 03:58:00,34.5,23.5,30.27,SW,225,0.0,0.0,64,0.00,,,0.00,WUHU21623XXSP,2013-01-14 08:58:00,
2013-01-14 04:03:00,34.3,23.7,30.27,SW,225,0.0,0.0,65,0.00,,,0.00,WUHU21623XXSP,2013-01-14 09:03:00,
2013-01-14 04:08:00,34.3,23.7,30.27,SW,225,0.0,0.0,65,0.00,,,0.00,WUHU21623XXSP,2013-01-14 09:08:00,
2013-01-14 04:13:00,33.8,23.7,30.28,SW,225,0.0,0.0,66,0.00,,,0.00,WUHU21623XXSP,2013-01-14 09:13:00,
2013-01-14 04:18:00,33.6,23.4,30.28,SW,225,0.0,0.0,66,0.00,,,0.00,WUHU21623XXSP,2013-01-14 09:18:00,
2013-01-14 04:23:00,33.3,23.4,30.28,SW,225,0.0,0.0,67,0.00,,,0.00,WUHU21623XXSP,2013-01-14 09:23:00,
2013-01-14 04:28:00,32.9,23.4,30.28,SW,225,0.0,0.0,68,0.00,,,0.00,WUHU21623XXSP,2013-01-14 09:28:00,
2013-01-14 04:33:00,32.7,23.3,30.29,SW,225,0.0,0.0,68,0.00,,,0.00,WUHU21623XXSP,2013-01-14 09:33:00,
2013-01-14 04:38:00,32.4,23.1,30.29,SW,225,0.0,0.0,69,0.00,,,0.00,WUHU21623XXSP,2013-01-14 09:38:00,
2013-01-14 04:43:00,32.2,23.2,30.29,SW,225,0.0,0.0,69,0.00,,,0.00,WUHU21623XXSP,2013-01-14 09:43:00,
2013-01-14 04:48:00,32.0,23.2,30.29,SW,225,0.0,0.0,69,0.00,,,0.00,WUHU21623XXSP,2013-01-14 09:48:00,
2013-01-14 04:53:00,31.8,23.2,30.30,SW,225,0.0,0.0,70,0.00,,,0.00,WUHU21623XXSP,2013-01-14 09:53:00,
2013-01-14 04:58:00,31.6,23.0,30.29,SW,225,0.0,0.0,70,0.00,,,0.00,WUHU21623XXSP,2013-01-14 09:58:00,
2013-01-14 05:03:00,31.3,23.1,30.30,SW,225,0.0,0.0,71,0.00,,,0.00,WUHU21623XXSP,2013-01-14 10:03:00,
2013-01-14 05:08:00,31.1,23.0,30.30,SW,225,0.0,0.0,71,0.00,,,0.00,WUHU21623XXSP,2013-01-14 10:08:00,
2013-01-14 05:13:00,30.9,22.8,30.30,SW,225,0.0,0.0,71,0.00,,,0.00,WUHU21623XXSP,2013-01-14 10:13:00,
2013-01-14 05:18:00,30.9,22.6,30.31,SW,225,0.0,0.0,71,0.00,,,0.00,WUHU21623XXSP,2013-01-14 10:18:00,
2013-01-14 05:23:00,30.7,22.4,30.30,SW,225,0.0,0.0,71,0.00,,,0.00,WUHU21623XXSP,2013-01-14 10:23:00,
2013-01-14 05:28:00,30.6,22.2,30.31,SW,225,0.0,0.0,71,0.00,,,0.00,WUHU21623XXSP,2013-01-14 10:28:00,
2013-01-14 05:33:00,30.4,22.4,30.31,North,0,0.0,0.0,72,0.00,,,0.00,WUHU21623XXSP,2013-01-14 10:33:00,
2013-01-14 05:38:00,30.0,22.0,30.30,North,0,0.0,0.0,72,0.00,,,0.00,WUHU21623XXSP,2013-01-14 10:38:00,
2013-01-14 05:43:00,30.0,22.0,30.31,SW,225,0.0,0.0,72,0.00,,,0.00,WUHU21623XXSP,2013-01-14 10:43:00,
2013-01-14 05:48:00,30.0,22.0,30.31,SW,225,0.0,0.0,72,0.00,,,0.00,WUHU21623XXSP,2013-01-14 10:48:00,
2013-01-14 05:53:00,29.7,22.0,30.30,SW,225,0.0,0.0,73,0.00,,,0.00,WUHU21623XXSP,2013-01-14 10:53:00,
2013-01-14 05:58:00,29.7,22.0,30.31,SW,225,0.0,0.0,73,0.00,,,0.00,WUHU21623XXSP,2013-01-14 10:58:00,
2013-01-14 06:03:00,29.5,21.8,30.31,SW,225,0.0,0.0,73,0.00,,,0.00,WUHU21623XXSP,2013-01-14 11:03:00,
2013-01-14 06:08:00,29.3,21.7,30.31,SW,225,0.0,0.0,73,0.00,,,0.00,WUHU21623XXSP,2013-01-14 11:08:00,
2013-01-14 06:13:00,29.1,21.5,30.31,SW,225,0.0,0.0,73,0.00,,,0.00,WUHU21623XXSP,2013-01-14 11:13:00,
2013-01-14 06:18:00,29.1,21.8,30.31,SW,225,0.0,0.0,74,0.00,,,0.00,WUHU21623XXSP,2013-01-14 11:18:00,
2013-01-14 06:23:00,28.9,21.7,30.31,SW,225,0.0,0.0,74,0.00,,,0.00,WUHU21623XXSP,2013-01-14 11:23:00,
2013-01-14 06:28:00,28.8,21.5,30.31,SW,225,0.0,0.0,74,0.00,,,0.00,WUHU21623XXSP,2013-01-14 11:28:00,
2013-01-14 06:33:00,28.8,21.5,30.31,SW,225,0.0,0.0,74,0.00,,,0.00,WUHU21623XXSP,2013-01-14 11:33:00,
2013-01-14 06:38:00,28.6,21.3,30.31,SW,225,0.0,0.0,74,0.00,,,0.00,WUHU21623XXSP,2013-01-14 11:38:00,
2013-01-14 06:43:00,28.6,21.6,30.32,SW,225,0.0,0.0,75,0.00,,,0.00,WUHU21623XXSP,2013-01-14 11:43:00,
2013-01-14 06:48:00,28.6,21.6,30.32,SW,225,0.0,0.0,75,0.00,,,0.00,WUHU21623XXSP,2013-01-14 11:48:00,
2013-01-14 06:53:00,28.2,21.3,30.32,SW,225,0.0,0.0,75,0.00,,,0.00,WUHU21623XXSP,2013-01-14 11:53:00,
2013-01-14 06:58:00,28.2,21.3,30.32,SW,225,0.0,0.0,75,0.00,,,0.00,WUHU21623XXSP,2013-01-14 11:58:00,
2013-01-14 07:03:00,28.2,21.3,30.32,SW,225,0.0,0.0,75,0.00,,,0.00,WUHU21623XXSP,2013-01-14 12:03:00,
2013-01-14 07:08:00,28.0,21.4,30.32,SW,225,0.0,0.0,76,0.00,,,0.00,WUHU21623XXSP,2013-01-14 12:08:00,
2013-01-14 07:13:00,28.0,21.4,30.32,SW,225,0.0,0.0,76,0.00,,,0.00,WUHU21623XXSP,2013-01-14 12:13:00,
2013-01-14 07:18:00,27.7,21.1,30.33,SW,225,0.0,0.0,76,0.00,,,0.00,WUHU21623XXSP,2013-01-14 12:18:00,
2013-01-14 07:23:00,27.7,21.4,30.32,SW,225,0.0,0.0,77,0.00,,,0.00,WUHU21623XXSP,2013-01-14 12:23:00,
2013-01-14 07:28:00,27.7,21.4,30.32,SW,225,0.0,0.0,77,0.00,,,0.00,WUHU21623XXSP,2013-01-14 12:28:00,
2013-01-14 07:33:00,27.5,21.4,30.32,SW,225,0.0,0.0,76,0.00,,,0.00,WUHU21623XXSP,2013-01-14 12:33:00,
2013-01-14 07:38:00,27.5,21.2,30.33,SW,225,0.0,0.0,77,0.00,,,0.00,WUHU21623XXSP,2013-01-14 12:38:00,
2013-01-14 07:43:00,27.3,21.0,30.33,SW,225,0.0,0.0,77,0.00,,,0.00,WUHU21623XXSP,2013-01-14 12:43:00,
2013-01-14 07:48:00,27.5,21.2,30.33,SW,225,0.0,0.0,77,0.00,,,0.00,WUHU21623XXSP,2013-01-14 12:48:00,
2013-01-14 07:53:00,27.5,21.2,30.34,SW,225,0.0,0.0,77,0.00,,,0.00,WUHU21623XXSP,2013-01-14 12:53:00,
2013-01-14 07:58:00,27.3,21.0,30.34,SW,225,0.0,0.0,77,0.00,,,0.00,WUHU21623XXSP,2013-01-14 12:58:00,
2013-01-14 08:03:00,27.3,21.0,30.34,SW,225,0.0,0.0,77,0.00,,,0.00,WUHU21623XXSP,2013-01-14 13:03:00,
2013-01-14 08:08:00,27.3,21.0,30.34,North,0,0.0,0.0,77,0.00,,,0.00,WUHU21623XXSP,2013-01-14 13:08:00,
2013-01-14 08:13:00,27.1,20.8,30.35,SW,225,0.0,0.0,77,0.00,,,0.00,WUHU21623XXSP,2013-01-14 13:13:00,
2013-01-14 08:18:00,27.1,21.1,30.34,SW,225,0.0,0.0,78,0.00,,,0.00,WUHU21623XXSP,2013-01-14 13:18:00,
2013-01-14 08:23:00,27.1,21.1,30.34,SW,225,0.0,0.0,78,0.00,,,0.00,WUHU21623XXSP,2013-01-14 13:23:00,
2013-01-14 08:28:00,27.1,21.1,30.34,SW,225,0.0,0.0,78,0.00,,,0.00,WUHU21623XXSP,2013-01-14 13:28:00,
2013-01-14 08:33:00,27.1,21.1,30.34,SW,225,0.0,0.0,78,0.00,,,0.00,WUHU21623XXSP,2013-01-14 13:33:00,
2013-01-14 08:38:00,27.0,20.9,30.34,SW,225,0.0,0.0,78,0.00,,,0.00,WUHU21623XXSP,2013-01-14 13:38:00,
2013-01-14 08:43:00,27.0,20.9,30.34,SW,225,0.0,0.0,78,0.00,,,0.00,WUHU21623XXSP,2013-01-14 13:43:00,
2013-01-14 08:48:00,27.0,20.9,30.34,SW,225,0.0,0.0,78,0.00,,,0.00,WUHU21623XXSP,2013-01-14 13:48:00,
2013-01-14 08:53:00,27.0,21.3,30.35,SW,225,0.0,0.0,79,0.00,,,0.00,WUHU21623XXSP,2013-01-14 13:53:00,
2013-01-14 08:58:00,27.0,21.3,30.35,SW,225,0.0,0.0,79,0.00,,,0.00,WUHU21623XXSP,2013-01-14 13:58:00,
2013-01-14 09:03:00,27.0,21.3,30.35,SW,225,0.0,0.0,79,0.00,,,0.00,WUHU21623XXSP,2013-01-14 14:03:00,
2013-01-14 09:08:00,26.8,21.1,30.36,SW,225,0.0,0.0,79,0.00,,,0.00,WUHU21623XXSP,2013-01-14 14:08:00,
2013-01-14 09:13:00,26.8,21.1,30.36,SW,225,0.0,0.0,79,0.00,,,0.00,WUHU21623XXSP,2013-01-14 14:13:00,
2013-01-14 09:18:00,26.8,21.1,30.37,SW,225,0.0,0.0,79,0.00,,,0.00,WUHU21623XXSP,2013-01-14 14:18:00,
2013-01-14 09:23:00,26.8,21.1,30.37,SW,225,0.0,0.0,79,0.00,,,0.00,WUHU21623XXSP,2013-01-14 14:23:00,
2013-01-14 09:28:00,26.8,21.1,30.37,SW,225,0.0,0.0,79,0.00,,,0.00,WUHU21623XXSP,2013-01-14 14:28:00,
2013-01-14 09:33:00,26.8,21.1,30.38,SW,225,0.0,0.0,79,0.00,,,0.00,WUHU21623XXSP,2013-01-14 14:33:00,
2013-01-14 09:38:00,26.8,21.1,30.38,SW,225,0.0,0.0,79,0.00,,,0.00,WUHU21623XXSP,2013-01-14 14:38:00,
2013-01-14 09:43:00,26.6,20.9,30.38,SW,225,0.0,0.0,79,0.00,,,0.00,WUHU21623XXSP,2013-01-14 14:43:00,
2013-01-14 09:48:00,26.6,20.9,30.38,SW,225,0.0,0.0,79,0.00,,,0.00,WUHU21623XXSP,2013-01-14 14:48:00,
2013-01-14 09:53:00,26.6,20.9,30.39,North,0,0.0,0.0,79,0.00,,,0.00,WUHU21623XXSP,2013-01-14 14:53:00,
2013-01-14 09:58:00,26.6,20.9,30.39,North,0,0.0,0.0,79,0.00,,,0.00,WUHU21623XXSP,2013-01-14 14:58:00,
2013-01-14 10:03:00,26.6,20.9,30.39,North,0,0.0,0.0,79,0.00,,,0.00,WUHU21623XXSP,2013-01-14 15:03:00,
2013-01-14 10:08:00,26.6,20.9,30.39,SW,225,0.0,0.0,79,0.00,,,0.00,WUHU21623XXSP,2013-01-14 15:08:00,
2013-01-14 10:13:00,26.6,20.9,30.39,SW,225,0.0,0.0,79,0.00,,,0.00,WUHU21623XXSP,2013-01-14 15:13:00,
2013-01-14 10:18:00,26.6,20.9,30.39,SW,225,0.0,0.0,79,0.00,,,0.00,WUHU21623XXSP,2013-01-14 15:18:00,
2013-01-14 10:23:00,26.6,20.9,30.39,SW,225,0.0,0.0,79,0.00,,,0.00,WUHU21623XXSP,2013-01-14 15:23:00,
2013-01-14 10:28:00,26.6,20.9,30.40,SW,225,0.0,0.0,79,0.00,,,0.00,WUHU21623XXSP,2013-01-14 15:28:00,
2013-01-14 10:33:00,26.6,21.1,30.40,SW,225,0.0,0.0,79,0.00,,,0.00,WUHU21623XXSP,2013-01-14 15:33:00,
2013-01-14 10:38:00,26.8,21.1,30.40,SW,225,0.0,0.0,79,0.00,,,0.00,WUHU21623XXSP,2013-01-14 15:38:00,
2013-01-14 10:43:00,26.8,21.1,30.40,SW,225,0.0,0.0,79,0.00,,,0.00,WUHU21623XXSP,2013-01-14 15:43:00,
2013-01-14 10:48:00,27.0,21.1,30.40,SW,225,0.0,0.0,79,0.00,,,0.00,WUHU21623XXSP,2013-01-14 15:48:00,
2013-01-14 10:53:00,27.0,21.3,30.40,SW,225,0.0,0.0,79,0.00,,,0.00,WUHU21623XXSP,2013-01-14 15:53:00,
2013-01-14 10:58:00,27.1,21.4,30.41,SW,225,0.0,0.0,79,0.00,,,0.00,WUHU21623XXSP,2013-01-14 15:58:00,
2013-01-14 11:03:00,27.3,21.6,30.41,SW,225,0.0,0.0,79,0.00,,,0.00,WUHU21623XXSP,2013-01-14 16:03:00,
2013-01-14 11:08:00,27.5,21.6,30.40,SW,225,0.0,0.0,79,0.00,,,0.00,WUHU21623XXSP,2013-01-14 16:08:00,
2013-01-14 11:13:00,27.7,22.0,30.41,SW,225,0.0,0.0,80,0.00,,,0.00,WUHU21623XXSP,2013-01-14 16:13:00,
2013-01-14 11:18:00,28.2,22.8,30.41,SW,225,0.0,0.0,80,0.00,,,0.00,WUHU21623XXSP,2013-01-14 16:18:00,
2013-01-14 11:23:00,28.9,23.5,30.42,SW,225,0.0,0.0,80,0.00,,,0.00,WUHU21623XXSP,2013-01-14 16:23:00,
2013-01-14 11:28:00,29.3,23.6,30.42,SW,225,0.0,0.0,79,0.00,,,0.00,WUHU21623XXSP,2013-01-14 16:28:00,
2013-01-14 11:33:00,30.0,24.3,30.42,SW,225,0.0,0.0,79,0.00,,,0.00,WUHU21623XXSP,2013-01-14 16:33:00,
2013-01-14 11:38:00,30.7,24.7,30.42,SW,225,0.0,0.0,78,0.00,,,0.00,WUHU21623XXSP,2013-01-14 16:38:00,
2013-01-14 11:43:00,31.3,25.2,30.42,SW,225,0.0,0.0,78,0.00,,,0.00,WUHU21623XXSP,2013-01-14 16:43:00,
2013-01-14 11:48:00,31.8,25.8,30.42,SW,225,0.0,0.0,78,0.00,,,0.00,WUHU21623XXSP,2013-01-14 16:48:00,
2013-01-14 11:53:00,32.7,26.3,30.42,SW,225,0.0,0.0,77,0.00,,,0.00,WUHU21623XXSP,2013-01-14 16:53:00,
2013-01-14 11:58:00,33.1,26.3,30.42,SW,225,0.0,0.0,76,0.00,,,0.00,WUHU21623XXSP,2013-01-14 16:58:00,
2013-01-14 12:03:00,34.0,26.8,30.42,SW,225,0.0,0.0,75,0.00,,,0.00,WUHU21623XXSP,2013-01-14 17:03:00,
2013-01-14 12:08:00,34.9,27.0,30.42,West,270,0.0,0.0,73,0.00,,,0.00,WUHU21623XXSP,2013-01-14 17:08:00,
2013-01-14 12:13:00,35.8,27.0,30.42,North,0,0.0,0.0,70,0.00,,,0.00,WUHU21623XXSP,2013-01-14 17:13:00,
2013-01-14 12:18:00,36.3,26.8,30.42,North,0,0.0,0.0,68,0.00,,,0.00,WUHU21623XXSP,2013-01-14 17:18:00,
2013-01-14 12:23:00,37.0,27.1,30.42,West,270,0.0,0.0,67,0.00,,,0.00,WUHU21623XXSP,2013-01-14 17:23:00,
2013-01-14 12:28:00,37.8,27.0,30.42,SW,225,0.0,0.0,65,0.00,,,0.00,WUHU21623XXSP,2013-01-14 17:28:00,
2013-01-14 12:33:00,38.3,26.7,30.42,SW,225,0.0,0.0,63,0.00,,,0.00,WUHU21623XXSP,2013-01-14 17:33:00,
2013-01-14 12:38:00,38.8,26.5,30.42,WNW,292,0.0,0.0,61,0.00,,,0.00,WUHU21623XXSP,2013-01-14 17:38:00,
2013-01-14 12:43:00,39.0,26.3,30.42,WNW,292,0.0,0.0,60,0.00,,,0.00,WUHU21623XXSP,2013-01-14 17:43:00,
2013-01-14 12:48:00,39.6,26.3,30.42,WNW,292,0.0,0.0,59,0.00,,,0.00,WUHU21623XXSP,2013-01-14 17:48:00,
2013-01-14 12:53:00,40.1,25.6,30.42,NNW,337,0.0,4.9,56,0.00,,,0.00,WUHU21623XXSP,2013-01-14 17:53:00,
2013-01-14 12:58:00,40.6,26.1,30.42,NNW,337,0.0,4.9,56,0.00,,,0.00,WUHU21623XXSP,2013-01-14 17:58:00,
2013-01-14 13:03:00,41.2,26.1,30.42,NNW,337,0.0,0.0,55,0.00,,,0.00,WUHU21623XXSP,2013-01-14 18:03:00,
2013-01-14 13:08:00,41.4,25.4,30.42,NNW,337,0.0,0.0,53,0.00,,,0.00,WUHU21623XXSP,2013-01-14 18:08:00,
2013-01-14 13:13:00,41.7,24.9,30.42,NW,315,5.8,5.8,51,0.00,,,0.00,WUHU21623XXSP,2013-01-14 18:13:00,
2013-01-14 13:18:00,42.1,25.2,30.42,NW,315,0.0,5.8,51,0.00,,,0.00,WUHU21623XXSP,2013-01-14 18:18:00,
2013-01-14 13:23:00,42.4,24.6,30.42,NNW,337,0.0,0.0,49,0.00,,,0.00,WUHU21623XXSP,2013-01-14 18:23:00,
2013-01-14 13:28:00,42.4,24.1,30.42,NNW,337,0.0,0.0,48,0.00,,,0.00,WUHU21623XXSP,2013-01-14 18:28:00,
2013-01-14 13:33:00,43.0,24.6,30.42,NNW,337,0.0,0.0,48,0.00,,,0.00,WUHU21623XXSP,2013-01-14 18:33:00,
2013-01-14 13:38:00,43.3,23.8,30.42,North,0,0.0,0.0,46,0.00,,,0.00,WUHU21623XXSP,2013-01-14 18:38:00,
2013-01-14 13:43:00,43.5,24.0,30.41,North,0,0.0,0.0,46,0.00,,,0.00,WUHU21623XXSP,2013-01-14 18:43:00,
2013-01-14 13:48:00,43.7,24.2,30.41,North,0,0.0,0.0,46,0.00,,,0.00,WUHU21623XXSP,2013-01-14 18:48:00,
2013-01-14 13:53:00,44.2,23.6,30.41,North,0,0.0,0.0,44,0.00,,,0.00,WUHU21623XXSP,2013-01-14 18:53:00,
2013-01-14 13:58:00,44.4,23.7,30.42,North,0,0.0,0.0,44,0.00,,,0.00,WUHU21623XXSP,2013-01-14 18:58:00,
2013-01-14 14:03:00,45.0,23.1,30.41,North,0,0.0,0.0,42,0.00,,,0.00,WUHU21623XXSP,2013-01-14 19:03:00,
2013-01-14 14:08:00,45.0,22.6,30.41,North,0,3.6,3.6,41,0.00,,,0.00,WUHU21623XXSP,2013-01-14 19:08:00,
2013-01-14 14:13:00,45.3,22.9,30.41,North,0,8.3,8.3,41,0.00,,,0.00,WUHU21623XXSP,2013-01-14 19:13:00,
2013-01-14 14:18:00,45.3,22.4,30.40,North,0,0.0,8.3,40,0.00,,,0.00,WUHU21623XXSP,2013-01-14 19:18:00,
2013-01-14 14:23:00,45.5,22.5,30.40,North,0,0.0,1.8,40,0.00,,,0.00,WUHU21623XXSP,2013-01-14 19:23:00,
2013-01-14 14:28:00,45.7,22.7,30.40,North,0,0.0,1.8,40,0.00,,,0.00,WUHU21623XXSP,2013-01-14 19:28:00,
2013-01-14 14:33:00,46.0,23.0,30.40,North,0,0.0,0.0,41,0.00,,,0.00,WUHU21623XXSP,2013-01-14 19:33:00,
2013-01-14 14:38:00,46.2,23.2,30.39,North,0,2.7,2.7,40,0.00,,,0.00,WUHU21623XXSP,2013-01-14 19:38:00,
2013-01-14 14:43:00,46.6,22.9,30.39,North,0,2.0,5.6,39,0.00,,,0.00,WUHU21623XXSP,2013-01-14 19:43:00,
2013-01-14 14:48:00,46.8,23.0,30.39,North,0,0.0,8.1,39,0.00,,,0.00,WUHU21623XXSP,2013-01-14 19:48:00,
2013-01-14 14:53:00,47.1,22.0,30.39,North,0,4.3,8.1,37,0.00,,,0.00,WUHU21623XXSP,2013-01-14 19:53:00,
2013-01-14 14:58:00,47.3,22.8,30.38,North,0,0.0,4.3,38,0.00,,,0.00,WUHU21623XXSP,2013-01-14 19:58:00,
2013-01-14 15:03:00,47.5,23.0,30.38,North,0,6.5,6.5,38,0.00,,,0.00,WUHU21623XXSP,2013-01-14 20:03:00,
2013-01-14 15:08:00,47.5,23.0,30.37,NNE,22,0.9,6.5,38,0.00,,,0.00,WUHU21623XXSP,2013-01-14 20:08:00,
2013-01-14 15:13:00,47.8,23.3,30.37,North,0,0.0,0.9,38,0.00,,,0.00,WUHU21623XXSP,2013-01-14 20:13:00,
2013-01-14 15:18:00,48.0,22.8,30.37,North,0,0.0,4.3,37,0.00,,,0.00,WUHU21623XXSP,2013-01-14 20:18:00,
2013-01-14 15:23:00,48.2,23.0,30.37,NNE,22,0.0,4.3,37,0.00,,,0.00,WUHU21623XXSP,2013-01-14 20:23:00,
2013-01-14 15:28:00,48.4,23.0,30.36,NNE,22,0.0,0.0,37,0.00,,,0.00,WUHU21623XXSP,2013-01-14 20:28:00,
2013-01-14 15:33:00,48.7,23.4,30.36,NNE,22,0.0,0.0,37,0.00,,,0.00,WUHU21623XXSP,2013-01-14 20:33:00,
2013-01-14 15:38:00,48.9,22.9,30.35,NNE,22,0.0,0.0,36,0.00,,,0.00,WUHU21623XXSP,2013-01-14 20:38:00,
2013-01-14 15:43:00,49.1,22.9,30.35,NNE,22,0.0,0.0,37,0.00,,,0.00,WUHU21623XXSP,2013-01-14 20:43:00,
2013-01-14 15:48:00,49.3,23.9,30.35,ENE,67,0.0,0.0,37,0.00,,,0.00,WUHU21623XXSP,2013-01-14 20:48:00,
2013-01-14 15:53:00,49.6,22.9,30.35,NNE,22,0.0,2.7,35,0.00,,,0.00,WUHU21623XXSP,2013-01-14 20:53:00,
2013-01-14 15:58:00,49.6,22.9,30.36,NNW,337,2.0,2.7,35,0.00,,,0.00,WUHU21623XXSP,2013-01-14 20:58:00,
2013-01-14 16:03:00,49.8,23.0,30.36,North,0,0.0,3.6,35,0.00,,,0.00,WUHU21623XXSP,2013-01-14 21:03:00,
2013-01-14 16:08:00,49.8,23.0,30.35,NW,315,4.7,4.7,34,0.00,,,0.00,WUHU21623XXSP,2013-01-14 21:08:00,
2013-01-14 16:13:00,49.8,22.3,30.35,NW,315,0.0,4.7,34,0.00,,,0.00,WUHU21623XXSP,2013-01-14 21:13:00,
2013-01-14 16:18:00,50.0,22.5,30.35,NW,315,0.0,5.1,34,0.00,,,0.00,WUHU21623XXSP,2013-01-14 21:18:00,
2013-01-14 16:23:00,49.8,21.6,30.36,NNE,22,4.7,5.1,33,0.00,,,0.00,WUHU21623XXSP,2013-01-14 21:23:00,
2013-01-14 16:28:00,50.2,22.0,30.35,NNW,337,5.1,5.1,33,0.00,,,0.00,WUHU21623XXSP,2013-01-14 21:28:00,
2013-01-14 16:33:00,50.0,22.5,30.36,NNW,337,0.0,5.1,34,0.00,,,0.00,WUHU21623XXSP,2013-01-14 21:33:00,
2013-01-14 16:38:00,50.2,22.0,30.35,North,0,0.0,1.6,33,0.00,,,0.00,WUHU21623XXSP,2013-01-14 21:38:00,
2013-01-14 16:43:00,50.4,22.1,30.36,North,0,1.3,1.6,33,0.00,,,0.00,WUHU21623XXSP,2013-01-14 21:43:00,
2013-01-14 16:48:00,50.2,22.0,30.35,North,0,3.8,4.3,33,0.00,,,0.00,WUHU21623XXSP,2013-01-14 21:48:00,
2013-01-14 16:53:00,50.4,22.1,30.35,North,0,3.8,4.3,33,0.00,,,0.00,WUHU21623XXSP,2013-01-14 21:53:00,
2013-01-14 16:58:00,50.4,22.1,30.36,North,0,2.5,5.4,33,0.00,,,0.00,WUHU21623XXSP,2013-01-14 21:58:00,
2013-01-14 17:03:00,50.4,22.1,30.36,North,0,2.2,5.4,33,0.00,,,0.00,WUHU21623XXSP,2013-01-14 22:03:00,
2013-01-14 17:08:00,50.4,22.1,30.36,North,0,7.8,7.8,33,0.00,,,0.00,WUHU21623XXSP,2013-01-14 22:08:00,
2013-01-14 17:13:00,50.4,22.1,30.36,North,0,7.8,7.8,33,0.00,,,0.00,WUHU21623XXSP,2013-01-14 22:13:00,
2013-01-14 17:18:00,50.5,23.0,30.36,North,0,0.0,7.8,34,0.00,,,0.00,WUHU21623XXSP,2013-01-14 22:18:00,
2013-01-14 17:23:00,50.5,23.0,30.36,North,0,0.0,7.8,34,0.00,,,0.00,WUHU21623XXSP,2013-01-14 22:23:00,
2013-01-14 17:28:00,50.7,23.1,30.36,NNE,22,0.0,0.0,34,0.00,,,0.00,WUHU21623XXSP,2013-01-14 22:28:00,
2013-01-14 17:33:00,50.7,23.1,30.36,NNE,22,0.0,0.0,34,0.00,,,0.00,WUHU21623XXSP,2013-01-14 22:33:00,
2013-01-14 17:38:00,50.7,23.1,30.36,North,0,0.0,0.0,34,0.00,,,0.00,WUHU21623XXSP,2013-01-14 22:38:00,
2013-01-14 17:43:00,50.5,23.1,30.36,North,0,0.0,0.0,33,0.00,,,0.00,WUHU21623XXSP,2013-01-14 22:43:00,
2013-01-14 17:48:00,50.4,23.0,30.36,North,0,0.0,0.0,34,0.00,,,0.00,WUHU21623XXSP,2013-01-14 22:48:00,
2013-01-14 17:53:00,50.5,23.0,30.36,North,0,0.0,0.0,34,0.00,,,0.00,WUHU21623XXSP,2013-01-14 22:53:00,
2013-01-14 17:58:00,50.2,22.7,30.36,North,0,3.8,3.8,34,0.00,,,0.00,WUHU21623XXSP,2013-01-14 22:58:00,
2013-01-14 18:03:00,50.2,22.7,30.36,North,0,0.0,3.8,34,0.00,,,0.00,WUHU21623XXSP,2013-01-14 23:03:00,
2013-01-14 18:08:00,50.2,22.0,30.36,North,0,3.6,3.6,33,0.00,,,0.00,WUHU21623XXSP,2013-01-14 23:08:00,
2013-01-14 18:13:00,50.2,22.0,30.36,North,0,3.6,3.6,34,0.00,,,0.00,WUHU21623XXSP,2013-01-14 23:13:00,
2013-01-14 18:18:00,50.2,22.7,30.36,North,0,0.0,3.6,34,0.00,,,0.00,WUHU21623XXSP,2013-01-14 23:18:00,
2013-01-14 18:23:00,50.2,22.7,30.36,North,0,0.0,0.0,34,0.00,,,0.00,WUHU21623XXSP,2013-01-14 23:23:00,
2013-01-14 18:28:00,50.2,22.7,30.36,North,0,0.0,0.0,34,0.00,,,0.00,WUHU21623XXSP,2013-01-14 23:28:00,
2013-01-14 18:33:00,50.4,22.8,30.35,North,0,0.0,0.0,34,0.00,,,0.00,WUHU21623XXSP,2013-01-14 23:33:00,
2013-01-14 18:38:00,50.2,22.7,30.36,WSW,247,0.0,0.0,34,0.00,,,0.00,WUHU21623XXSP,2013-01-14 23:38:00,
2013-01-14 18:43:00,50.2,23.3,30.36,WSW,247,0.0,0.0,34,0.00,,,0.00,WUHU21623XXSP,2013-01-14 23:43:00,
2013-01-14 18:48:00,50.2,23.3,30.36,WSW,247,0.0,0.0,35,0.00,,,0.00,WUHU21623XXSP,2013-01-14 23:48:00,
2013-01-14 18:53:00,50.2,23.3,30.37,WSW,247,0.0,0.0,35,0.00,,,0.00,WUHU21623XXSP,2013-01-14 23:53:00,
2013-01-14 18:58:00,50.2,23.3,30.37,WSW,247,0.0,0.0,35,0.00,,,0.00,WUHU21623XXSP,2013-01-14 23:58:00,
2013-01-14 19:03:00,50.2,23.3,30.36,WSW,247,0.0,0.0,35,0.00,,,0.00,WUHU21623XXSP,2013-01-15 00:03:00,
2013-01-14 19:08:00,50.2,23.3,30.36,WSW,247,0.0,0.0,35,0.00,,,0.00,WUHU21623XXSP,2013-01-15 00:08:00,
2013-01-14 19:13:00,50.2,23.3,30.37,WSW,247,0.0,0.0,35,0.00,,,0.00,WUHU21623XXSP,2013-01-15 00:13:00,
2013-01-14 19:18:00,49.8,22.3,30.36,WSW,247,0.0,0.0,34,0.00,,,0.00,WUHU21623XXSP,2013-01-15 00:18:00,
2013-01-14 19:23:00,49.8,22.3,30.36,WSW,247,0.0,0.0,34,0.00,,,0.00,WUHU21623XXSP,2013-01-15 00:23:00,
2013-01-14 19:28:00,49.6,22.2,30.36,WSW,247,0.0,0.0,34,0.00,,,0.00,WUHU21623XXSP,2013-01-15 00:28:00,
2013-01-14 19:33:00,49.6,22.9,30.36,WSW,247,0.0,0.0,35,0.00,,,0.00,WUHU21623XXSP,2013-01-15 00:33:00,
2013-01-14 19:38:00,49.6,22.9,30.36,WSW,247,0.0,0.0,35,0.00,,,0.00,WUHU21623XXSP,2013-01-15 00:38:00,
2013-01-14 19:43:00,49.3,22.6,30.36,WSW,247,0.0,0.0,35,0.00,,,0.00,WUHU21623XXSP,2013-01-15 00:43:00,
2013-01-14 19:48:00,49.1,22.4,30.36,WSW,247,0.0,0.0,35,0.00,,,0.00,WUHU21623XXSP,2013-01-15 00:48:00,
2013-01-14 19:53:00,48.7,22.1,30.36,WSW,247,0.0,0.0,35,0.00,,,0.00,WUHU21623XXSP,2013-01-15 00:53:00,
2013-01-14 19:58:00,48.7,22.8,30.36,WSW,247,0.0,0.0,36,0.00,,,0.00,WUHU21623XXSP,2013-01-15 00:58:00,
2013-01-14 20:03:00,48.2,23.0,30.36,WSW,247,0.0,0.0,37,0.00,,,0.00,WUHU21623XXSP,2013-01-15 01:03:00,
2013-01-14 20:08:00,48.0,22.8,30.36,WSW,247,0.0,0.0,37,0.00,,,0.00,WUHU21623XXSP,2013-01-15 01:08:00,
2013-01-14 20:13:00,47.5,23.3,30.36,WSW,247,0.0,0.0,38,0.00,,,0.00,WUHU21623XXSP,2013-01-15 01:13:00,
2013-01-14 20:18:00,46.9,23.8,30.36,WSW,247,0.0,0.0,40,0.00,,,0.00,WUHU21623XXSP,2013-01-15 01:18:00,
2013-01-14 20:23:00,46.6,24.1,30.36,WSW,247,0.0,0.0,41,0.00,,,0.00,WUHU21623XXSP,2013-01-15 01:23:00,
2013-01-14 20:28:00,46.0,24.1,30.36,WSW,247,0.0,0.0,42,0.00,,,0.00,WUHU21623XXSP,2013-01-15 01:28:00,
2013-01-14 20:33:00,45.5,24.7,30.36,WSW,247,0.0,0.0,44,0.00,,,0.00,WUHU21623XXSP,2013-01-15 01:33:00,
2013-01-14 20:38:00,45.1,24.9,30.36,WSW,247,0.0,0.0,45,0.00,,,0.00,WUHU21623XXSP,2013-01-15 01:38:00,
2013-01-14 20:43:00,44.6,25.0,30.37,WSW,247,0.0,0.0,46,0.00,,,0.00,WUHU21623XXSP,2013-01-15 01:43:00,
2013-01-14 20:48:00,44.1,25.0,30.37,WSW,247,0.0,0.0,47,0.00,,,0.00,WUHU21623XXSP,2013-01-15 01:48:00,
2013-01-14 20:53:00,43.7,25.3,30.37,WSW,247,0.0,0.0,48,0.00,,,0.00,WUHU21623XXSP,2013-01-15 01:53:00,
2013-01-14 20:58:00,43.5,25.6,30.36,WSW,247,0.0,0.0,49,0.00,,,0.00,WUHU21623XXSP,2013-01-15 01:58:00,
2013-01-14 21:03:00,43.0,25.3,30.37,WSW,247,0.0,0.0,50,0.00,,,0.00,WUHU21623XXSP,2013-01-15 02:03:00,
2013-01-14 21:08:00,42.6,25.3,30.37,WSW,247,0.0,0.0,50,0.00,,,0.00,WUHU21623XXSP,2013-01-15 02:08:00,
2013-01-14 21:13:00,42.4,25.6,30.37,North,0,0.0,0.0,51,0.00,,,0.00,WUHU21623XXSP,2013-01-15 02:13:00,
2013-01-14 21:18:00,41.9,25.5,30.37,WSW,247,0.0,0.0,52,0.00,,,0.00,WUHU21623XXSP,2013-01-15 02:18:00,
2013-01-14 21:23:00,41.5,25.1,30.37,WSW,247,0.0,0.0,52,0.00,,,0.00,WUHU21623XXSP,2013-01-15 02:23:00,
2013-01-14 21:28:00,41.2,25.2,30.37,WSW,247,0.0,0.0,53,0.00,,,0.00,WUHU21623XXSP,2013-01-15 02:28:00,
2013-01-14 21:33:00,40.8,24.9,30.37,WSW,247,0.0,0.0,53,0.00,,,0.00,WUHU21623XXSP,2013-01-15 02:33:00,
2013-01-14 21:38:00,40.8,24.9,30.37,WSW,247,0.0,0.0,53,0.00,,,0.00,WUHU21623XXSP,2013-01-15 02:38:00,
2013-01-14 21:43:00,40.6,24.7,30.37,WSW,247,0.0,0.0,53,0.00,,,0.00,WUHU21623XXSP,2013-01-15 02:43:00,
2013-01-14 21:48:00,40.3,24.8,30.37,WSW,247,0.0,0.0,54,0.00,,,0.00,WUHU21623XXSP,2013-01-15 02:48:00,
2013-01-14 21:53:00,40.3,24.8,30.37,WSW,247,0.0,0.0,54,0.00,,,0.00,WUHU21623XXSP,2013-01-15 02:53:00,
2013-01-14 21:58:00,40.1,24.7,30.37,WSW,247,0.0,0.0,55,0.00,,,0.00,WUHU21623XXSP,2013-01-15 02:58:00,
2013-01-14 22:03:00,39.9,24.9,30.37,WSW,247,0.0,0.0,55,0.00,,,0.00,WUHU21623XXSP,2013-01-15 03:03:00,
2013-01-14 22:08:00,39.7,24.8,30.36,WSW,247,0.0,0.0,55,0.00,,,0.00,WUHU21623XXSP,2013-01-15 03:08:00,
2013-01-14 22:13:00,39.6,25.0,30.37,WSW,247,0.0,0.0,56,0.00,,,0.00,WUHU21623XXSP,2013-01-15 03:13:00,
2013-01-14 22:18:00,39.4,25.3,30.37,WSW,247,0.0,0.0,57,0.00,,,0.00,WUHU21623XXSP,2013-01-15 03:18:00,
2013-01-14 22:23:00,39.2,25.1,30.37,WSW,247,0.0,0.0,57,0.00,,,0.00,WUHU21623XXSP,2013-01-15 03:23:00,
2013-01-14 22:28:00,39.0,25.4,30.37,WSW,247,0.0,0.0,58,0.00,,,0.00,WUHU21623XXSP,2013-01-15 03:28:00,
2013-01-14 22:33:00,38.8,25.7,30.37,WSW,247,0.0,0.0,59,0.00,,,0.00,WUHU21623XXSP,2013-01-15 03:33:00,
2013-01-14 22:38:00,38.8,25.7,30.37,WSW,247,0.0,0.0,59,0.00,,,0.00,WUHU21623XXSP,2013-01-15 03:38:00,
2013-01-14 22:43:00,38.5,25.3,30.37,WSW,247,0.0,0.0,59,0.00,,,0.00,WUHU21623XXSP,2013-01-15 03:43:00,
2013-01-14 22:48:00,38.3,25.6,30.37,WSW,247,0.0,0.0,60,0.00,,,0.00,WUHU21623XXSP,2013-01-15 03:48:00,
2013-01-14 22:53:00,38.1,25.4,30.37,WSW,247,0.0,0.0,60,0.00,,,0.00,WUHU21623XXSP,2013-01-15 03:53:00,
2013-01-14 23:02:00,37.8,25.5,30.37,WSW,247,0.0,0.0,61,0.00,,,0.00,WUHU21623XXSP,2013-01-15 04:02:00,
2013-01-14 23:07:00,37.6,25.7,30.37,WSW,247,0.0,0.0,62,0.00,,,0.00,WUHU21623XXSP,2013-01-15 04:07:00,
2013-01-14 23:12:00,37.4,25.6,30.37,WSW,247,0.0,0.0,62,0.00,,,0.00,WUHU21623XXSP,2013-01-15 04:12:00,
2013-01-14 23:17:00,37.2,25.4,30.38,WSW,247,0.0,0.0,62,0.00,,,0.00,WUHU21623XXSP,2013-01-15 04:17:00,
2013-01-14 23:22:00,37.0,25.6,30.38,WSW,247,0.0,0.0,63,0.00,,,0.00,WUHU21623XXSP,2013-01-15 04:22:00,
2013-01-14 23:27:00,37.0,25.6,30.38,WSW,247,0.0,0.0,63,0.00,,,0.00,WUHU21623XXSP,2013-01-15 04:27:00,
2013-01-14 23:32:00,36.7,25.3,30.38,WSW,247,0.0,0.0,63,0.00,,,0.00,WUHU21623XXSP,2013-01-15 04:32:00,
2013-01-14 23:37:00,36.5,25.6,30.38,WSW,247,0.0,0.0,64,0.00,,,0.00,WUHU21623XXSP,2013-01-15 04:37:00,
2013-01-14 23:42:00,36.5,25.5,30.38,WSW,247,0.0,0.0,64,0.00,,,0.00,WUHU21623XXSP,2013-01-15 04:42:00,
2013-01-14 23:47:00,36.3,25.3,30.39,WSW,247,0.0,0.0,65,0.00,,,0.00,WUHU21623XXSP,2013-01-15 04:47:00,
2013-01-14 23:52:00,36.3,25.7,30.38,WSW,247,0.0,0.0,65,0.00,,,0.00,WUHU21623XXSP,2013-01-15 04:52:00,
2013-01-14 23:57:00,36.1,25.5,30.38,WSW,247,0.0,0.0,65,0.00,,,0.00,WUHU21623XXSP,2013-01-15 04:57:00,